STARLINK-3674, 51975

Orbit data source: Space-Track

STARLINK-3674, 51975 is a payload satellite owned by SpaceX/Seattle (US) in LEO that was launched on Wed, 09 Mar 2022 UTC via an FALCON 9 launch vehicle from the Air Force Eastern Test Range (AFETR). Payload-class satellites include a variety of spacecraft equipped with specific instruments for various scientific and technological missions. These include communications satellites like Starlink; space stations such as the ISS; scientific satellites like the Hubble; Earth observation satellites from companies like Planet Labs, Umbra, and HawkEye 360; GPS; miniature CubeSats for education and research; and military/defense satellites.

Loading next visibility...
Identifier
51975, 2022-025V
Orbit
LEO
Country
Flag of USUS
Related business
Manufacturer
SpaceX/Seattle
Mission
Operational Commercial Communications
Bus & Motor
STARLINK, Unknown motor
Mass
297 kg wet, ~275 kg dry
Launch date (UTC)
2022-03-09 (4 years ago)
Launch vehicle
FALCON 9
Launch site
Air Force Eastern Test Range (AFETR)
Object type
Payload
Rocket body
Debris
Shape & HBR
Box + 1 Pan, 10.1 m
Radar Cross Section
13.562 m², Large (>1 m²)

Expand to show TLE details & history
Last TLE update: 21 hours ago

TLE from 21 hours ago
0 STARLINK-3674
1 51975U 22025V   25346.48729669 -.00000993  00000-0 -47759-4 0  9998
2 51975  53.0568  57.9473 0001376  94.3933 265.7214 15.06390880207847
Epoch: 2025-12-12T11:41Z
TLE epoch observation values (Epoch: 2025-12-12T11:41:42.434Z)
Latitude
0.00001°
Longitude
161.09229°
Altitude
548.19 km
Speed
7.589 km/s
True Right ascension
03h 51m 47s
True Declination
0° 00' 00"
Sunlit
Object was in full shadow at epoch
Visualization orbit readout
Latitude
Unknown
Longitude
Unknown
Altitude
Unknown
Speed
Unknown
Apparent Right ascension
Unknown
Apparent Declination
Unknown
Sunlit
N/A
Visualization observer readout
Local Sidereal Time
07:28:05
Azimuth
Unknown
Elevation
Unknown
Doppler factor
Unknown
Orbital elements
Apogee altitude
548.463 km
Perigee altitude
546.557 km
Semi-major axis
6,925.647 km
Eccentricity
0.00014
Inclination
53.0568°
RAAN
57.9473°
Arg. of periapsis
94.3933°
True anomaly
265.70568°
Mean anomaly
265.7214°
Eccentric anomaly
265.71354°
Mean motion
3.76576 °/min
Orbital period
95.6 mins
BSTAR
-0.000047759
Loading maneuver chart data...
Computing Atmospheric mass density...
Loading historical data...
Loading historical data...
Loading historical data...
Loading historical data...
Loading historical data...
Loading historical data...
Loading historical data...

Documentation

Showing up to 5 results
|